FW8074 Weather Reports


Display with metric or nautical units.
time (UTC)temp
F
wind
direction
speed
MPH
gust
MPH
rain 1hr
in
rain 24hr
in
rain mn
in
humidity
%
barometer
mb
20260902171628 94 0 0.0 0.0 0.00 0.00 0.00 60 1015.0
20260902170116 94 0 0.0 0.0 0.00 0.00 0.00 61 1015.1
20260902164635 94 0 0.0 0.0 0.00 0.00 0.00 64 1015.0
20260902163109 94 0 0.0 0.0 0.00 0.00 0.00 64 1015.1
20260902161608 93 0 0.0 0.0 0.00 0.00 0.00 66 1015.1
20260902160112 93 0 0.0 0.0 0.00 0.00 0.00 64 1015.2
20260902154602 93 0 0.0 0.0 0.00 0.00 0.00 67 1015.2
20260902153104 92 0 0.0 0.0 0.00 0.00 0.00 68 1015.4
20260902151607 91 0 0.0 0.0 0.00 0.00 0.00 68 1015.6
20260902144609 90 0 0.0 0.0 0.00 0.00 0.00 72 1015.4
20260902143106 90 0 0.0 0.0 0.00 0.00 0.00 72 1015.2
20260902141605 88 0 0.0 0.0 0.00 0.00 0.00 76 1015.1
20260902134605 86 0 0.0 0.0 0.00 0.00 0.00 80 1015.2
20260902133104 84 0 0.0 0.0 0.00 0.00 0.00 86 1015.0
20260902131614 82 0 0.0 0.0 0.00 0.00 0.00 89 1015.3
20260902130113 79 0 0.0 0.0 0.00 0.00 0.00 94 1015.5
20260902124559 77 0 0.0 0.0 0.00 0.00 0.00 98 1015.5
20260902123101 75 0 0.0 0.0 0.00 0.00 0.00 98 1015.5
20260902121602 74 0 0.0 0.0 0.00 0.00 0.00 99 1015.6
20260902114619 73 0 0.0 0.0 0.00 0.00 0.00 99 1015.6
20260902113104 73 0 0.0 0.0 0.00 0.00 0.00 99 1015.6
20260902111604 73 0 0.0 0.0 0.00 0.00 0.00 98 1015.3
20260902110107 73 0 0.0 0.0 0.00 0.00 0.00 98 1015.4
20260902104602 73 0 0.0 0.0 0.00 0.00 0.00 98 1015.1
20260902103110 73 0 0.0 0.0 0.00 0.00 0.00 98 1014.9
20260902101600 73 0 0.0 0.0 0.00 0.00 0.00 98 1014.8
20260902100101 74 0 0.0 0.0 0.00 0.00 0.00 98 1014.8
20260902094601 74 0 0.0 0.0 0.00 0.00 0.00 97 1015.0
20260902093103 74 0 0.0 0.0 0.00 0.00 0.00 98 1014.9
20260902091604 74 0 0.0 0.0 0.00 0.00 0.00 97 1014.7
20260902090105 74 0 0.0 0.0 0.00 0.00 0.00 97 1014.4
20260902084607 74 0 0.0 0.0 0.00 0.00 0.00 97 1014.6
20260902083105 74 0 0.0 0.0 0.00 0.00 0.00 96 1014.6
20260902081608 75 0 0.0 0.0 0.00 0.00 0.00 96 1014.4
20260902080105 75 0 0.0 0.0 0.00 0.00 0.00 96 1014.5
20260902074604 75 0 0.0 0.0 0.00 0.00 0.00 95 1014.6
20260902073104 76 0 0.0 0.0 0.00 0.00 0.00 95 1014.8
20260902071605 76 0 0.0 0.0 0.00 0.00 0.00 95 1014.8
20260902070114 76 0 0.0 0.0 0.00 0.00 0.00 94 1014.9
20260902064605 76 0 0.0 0.0 0.00 0.00 0.00 94 1015.0
20260902063108 77 0 0.0 0.0 0.00 0.00 0.00 93 1015.0
20260902061603 77 0 0.0 0.0 0.00 0.00 0.00 93 1014.9
20260902060128 77 0 0.0 0.0 0.00 0.00 0.00 93 1015.0
20260902054603 77 0 0.0 0.0 0.00 0.00 0.00 93 1014.9
20260902053103 77 0 0.0 0.0 0.00 0.00 0.00 93 1014.7
20260902051610 77 0 0.0 0.0 0.00 0.00 0.00 93 1014.6
20260902050109 78 0 0.0 0.0 0.00 0.00 0.00 93 1014.7
20260902044604 78 0 0.0 0.0 0.00 0.00 0.00 92 1014.6
20260902043104 78 0 0.0 0.0 0.00 0.00 0.00 92 1014.7
20260902041611 78 0 0.0 0.0 0.00 0.00 0.00 92 1014.4
20260902040107 78 0 0.0 0.0 0.00 0.00 0.00 92 1014.4
20260902034603 78 0 0.0 0.0 0.00 0.00 0.00 92 1014.3
20260902033107 78 0 0.0 0.0 0.00 0.00 0.00 92 1014.3
20260902031610 78 0 0.0 0.0 0.00 0.00 0.00 92 1014.4
20260902030104 78 0 0.0 0.0 0.00 0.00 0.00 91 1014.3
20260902024607 79 0 0.0 0.0 0.00 0.00 0.00 90 1014.2
20260902023059 79 0 0.0 0.0 0.00 0.00 0.00 91 1014.2
20260902021604 79 0 0.0 0.0 0.00 0.00 0.00 90 1014.2
20260902014603 80 0 0.0 0.0 0.00 0.00 0.00 90 1014.0
20260902013102 81 0 0.0 0.0 0.00 0.00 0.00 90 1013.9
20260902011611 81 0 0.0 0.0 0.00 0.00 0.00 90 1014.0
20260902010105 82 0 0.0 0.0 0.00 0.00 0.00 88 1013.8
20260902004603 82 0 0.0 0.0 0.00 0.00 0.00 87 1013.6
20260902003142 83 0 0.0 0.0 0.00 0.00 0.00 86 1013.5
20260902001602 83 0 0.0 0.0 0.00 0.00 0.00 80 1013.5
20260902000120 84 0 0.0 0.0 0.00 0.00 0.00 78 1013.4
20260901234605 85 0 0.0 0.0 0.00 0.00 0.00 78 1013.5
20260901233106 86 0 0.0 0.0 0.00 0.00 0.00 77 1013.5
20260901231606 88 0 0.0 0.0 0.00 0.00 0.00 75 1013.7
20260901230115 88 0 0.0 0.0 0.00 0.00 0.00 74 1013.6
20260901224601 89 0 0.0 0.0 0.00 0.00 0.00 70 1013.7
20260901223117 90 0 0.0 0.0 0.00 0.00 0.00 70 1013.6
20260901221617 91 0 0.0 0.0 0.00 0.00 0.00 69 1013.7
20260901220134 91 0 0.0 0.0 0.00 0.00 0.00 65 1013.7
20260901214601 92 0 0.0 0.0 0.00 0.00 0.00 64 1013.7
20260901213122 92 0 0.0 0.0 0.00 0.00 0.00 63 1013.6
20260901211604 93 0 0.0 1.0 0.00 0.00 0.00 61 1013.7
20260901210106 93 98 0.0 3.0 0.00 0.00 0.00 59 1013.5
20260901204614 93 0 0.0 4.0 0.00 0.00 0.00 58 1013.5
20260901203115 93 0 0.0 3.0 0.00 0.00 0.00 59 1013.7
20260901201603 93 0 0.0 6.0 0.00 0.00 0.00 60 1013.8
20260901200106 93 0 0.0 5.0 0.00 0.00 0.00 59 1013.9
20260901194602 93 67 0.0 4.0 0.00 0.00 0.00 59 1014.1
20260901193122 93 0 0.0 4.0 0.00 0.00 0.00 57 1014.3
20260901191604 94 96 1.0 6.0 0.00 0.00 0.00 57 1014.3
20260901190105 94 0 0.0 0.0 0.00 0.00 0.00 57 1014.4
20260901184605 93 0 0.0 4.0 0.00 0.00 0.00 60 1014.5
20260901183105 93 0 0.0 5.0 0.00 0.00 0.00 59 1014.7
20260901181602 94 3 0.0 5.0 0.00 0.00 0.00 60 1015.0
20260901180106 94 0 0.0 4.0 0.00 0.00 0.00 59 1015.0
20260901174604 93 0 1.0 5.0 0.00 0.00 0.00 59 1015.2
20260901173105 93 111 0.0 4.0 0.00 0.00 0.00 62 1015.1